West Palm Beach, FL

2:06 AM EST on February 14, 2016 (GMT -0500)
Palm Beach International

Weather History for KPBI - October, 2010

Change the Weather History Date:

Monday, October 25, 2010

  Actual Average Record
Temperature  
Mean Temperature 81 °F 77 °F  
Max Temperature 86 °F 84 °F 90 °F (1925)
Min Temperature 76 °F 70 °F 52 °F (2005)
Degree Days  
Heating Degree Days 0 0  
Month to date heating degree days 0 0  
Since 1 July heating degree days 0 0  
Cooling Degree Days 16 12  
Month to date cooling degree days 328 347  
Year to date cooling degree days 3671 3555  
Growing Degree Days 30 (Base 50)    
Moisture  
Dew Point 73 °F    
Average Humidity 76    
Maximum Humidity 87    
Minimum Humidity 65    
Precipitation  
Precipitation T in 0.15 in 1.94 in (1921)
Month to date precipitation 1.23 4.25  
Year to date precipitation 49.80 53.32  
Snow  
Snow 0.00 in - - ()
Month to date snowfall 0.0  
Since 1 July snowfall 0.0  
Since 1 September snowfall 0.0  
Snow Depth 0.00 in    
Sea Level Pressure  
Sea Level Pressure 30.00 in    
Wind  
Wind Speed 13 mph (SE)    
Max Wind Speed 21 mph    
Max Gust Speed 26 mph    
Visibility 9 miles    
Events Rain    
T = Trace of Precipitation, MM = Missing Value Source: NWS Daily Summary

Daily Weather History Graph

Daily Weather History Graph

Search for Another Location

Airport or City:

Trip Planner

Search our weather history database for the weather conditions in past years. The results will help you decide how hot, cold, wet, or windy it might be!

Date:

Astronomy

Oct. 25, 2010 Rise Set
Actual Time 7:25 AM EDT 6:43 PM EDT
Civil Twilight 7:01 AM EDT 7:06 PM EDT
Nautical Twilight 6:34 AM EDT 7:33 PM EDT
Astronomical Twilight 6:07 AM EDT 8:00 PM EDT
Moon 8:30 PM EDT (10/25) 9:46 AM EDT (10/25)
Length of Visible Light 12h 04m
Length of Day
11h 17m
Waning Gibbous, 93% of the Moon is Illuminated
Oct 25
Waning Gibbous
Oct 30
Last Quarter
Nov 6
New
Nov 13
First Quarter
Nov 21
Full

Hourly Weather History & Observations

Time (EDT) Temp. Heat Index Dew Point Humidity Pressure Visibility Wind Dir Wind Speed Gust Speed Precip Events Conditions
12:16 AM 77.0 °F - 75.2 °F 94% 30.04 in 1.0 mi East 17.3 mph 23.0 mph 0.15 in Rain Heavy Rain
12:24 AM 77.0 °F - 75.2 °F 94% 30.04 in 1.8 mi East 21.9 mph 25.3 mph 0.41 in Rain Heavy Rain
12:31 AM 75.2 °F - 75.2 °F 100% 30.04 in 2.5 mi East 15.0 mph 25.3 mph 0.53 in Rain Heavy Rain
12:39 AM 77.0 °F - 73.4 °F 89% 30.04 in 8.0 mi East 10.4 mph - 0.56 in Rain Light Rain
12:53 AM 75.9 °F - 71.1 °F 85% 30.04 in 10.0 mi ESE 6.9 mph - 0.56 in   Overcast
1:53 AM 77.5 °F - 70.7 °F 79% 30.03 in 10.0 mi SSE 6.9 mph - N/A   Mostly Cloudy
2:53 AM 78.1 °F - 71.2 °F 79% 30.01 in 10.0 mi SE 9.2 mph - N/A   Scattered Clouds
3:53 AM 78.4 °F - 70.9 °F 77% 29.99 in 10.0 mi SE 10.4 mph - N/A   Scattered Clouds
4:53 AM 78.6 °F - 70.3 °F 76% 29.99 in 10.0 mi SE 12.7 mph - N/A   Scattered Clouds
5:53 AM 77.9 °F - 70.3 °F 77% 30.00 in 10.0 mi SE 10.4 mph - N/A   Partly Cloudy
6:53 AM 77.9 °F - 70.3 °F 77% 30.01 in 10.0 mi SE 10.4 mph - N/A   Partly Cloudy
7:53 AM 79.0 °F - 73.9 °F 84% 30.02 in 10.0 mi SE 5.8 mph - N/A   Scattered Clouds
8:53 AM 81.0 °F 86.2 °F 73.9 °F 79% 30.03 in 10.0 mi ESE 15.0 mph - N/A   Scattered Clouds
9:53 AM 82.9 °F 89.4 °F 73.9 °F 74% 30.03 in 10.0 mi SE 15.0 mph - N/A   Scattered Clouds
10:53 AM 84.0 °F 91.2 °F 73.9 °F 72% 30.03 in 10.0 mi SSE 17.3 mph 26.5 mph N/A   Scattered Clouds
11:53 AM 86.0 °F 93.8 °F 73.9 °F 67% 30.02 in 10.0 mi SE 16.1 mph - N/A   Mostly Cloudy
12:42 PM 84.2 °F 90.9 °F 73.4 °F 70% 30.01 in 10.0 mi SE 17.3 mph - N/A   Mostly Cloudy
12:53 PM 84.0 °F 91.2 °F 73.9 °F 72% 30.01 in 10.0 mi SE 15.0 mph - 0.00 in Rain Light Rain
1:05 PM 84.2 °F 90.9 °F 73.4 °F 70% 30.00 in 10.0 mi SE 17.3 mph - 0.00 in   Mostly Cloudy
1:53 PM 84.0 °F 91.9 °F 75.0 °F 74% 29.99 in 10.0 mi SE 18.4 mph - 0.00 in   Mostly Cloudy
2:53 PM 84.9 °F 93.3 °F 75.0 °F 72% 29.97 in 10.0 mi SSE 15.0 mph - N/A   Mostly Cloudy
3:53 PM 82.9 °F 89.4 °F 73.9 °F 74% 29.96 in 10.0 mi SE 16.1 mph - N/A   Scattered Clouds
4:53 PM 84.0 °F 90.2 °F 73.0 °F 69% 29.96 in 10.0 mi SSE 17.3 mph - N/A   Scattered Clouds
5:53 PM 82.9 °F 89.4 °F 73.9 °F 74% 29.96 in 10.0 mi SE 15.0 mph - N/A   Scattered Clouds
6:53 PM 81.0 °F 86.2 °F 73.9 °F 79% 29.96 in 10.0 mi SE 12.7 mph - N/A   Scattered Clouds
7:53 PM 81.0 °F 86.7 °F 75.0 °F 82% 29.95 in 10.0 mi SE 12.7 mph - N/A   Scattered Clouds
8:53 PM 81.0 °F 86.7 °F 75.0 °F 82% 29.96 in 10.0 mi SE 16.1 mph - N/A   Partly Cloudy
9:53 PM 81.0 °F 86.7 °F 75.0 °F 82% 29.97 in 10.0 mi SE 15.0 mph - N/A   Scattered Clouds
10:53 PM 81.0 °F 86.7 °F 75.0 °F 82% 29.99 in 10.0 mi SE 10.4 mph - N/A   Scattered Clouds
11:53 PM 81.0 °F 86.7 °F 75.0 °F 82% 29.99 in 10.0 mi SE 12.7 mph - N/A   Scattered Clouds